Year,Month,Day,Hour,Minute,Value (Times are PST for temperature in C)
2020,04,16,00,00,8.50
2020,04,16,00,01,8.40
2020,04,16,00,02,8.40
2020,04,16,00,03,8.40
2020,04,16,00,04,8.40
2020,04,16,00,05,8.30
2020,04,16,00,06,8.30
2020,04,16,00,07,8.30
2020,04,16,00,08,8.30
2020,04,16,00,09,8.30
2020,04,16,00,10,8.30
2020,04,16,00,11,8.20
2020,04,16,00,12,8.20
2020,04,16,00,13,8.20
2020,04,16,00,14,8.20
2020,04,16,00,15,8.20
2020,04,16,00,16,8.10
2020,04,16,00,17,8.10
2020,04,16,00,18,8.10
2020,04,16,00,19,8.10
2020,04,16,00,20,8.10
2020,04,16,00,21,8.00
2020,04,16,00,22,8.00
2020,04,16,00,23,8.00
2020,04,16,00,24,8.00
2020,04,16,00,25,8.00
2020,04,16,00,26,8.00
2020,04,16,00,27,8.00
2020,04,16,00,28,8.00
2020,04,16,00,29,8.00
2020,04,16,00,30,7.90
2020,04,16,00,31,7.90
2020,04,16,00,32,7.90
2020,04,16,00,33,7.90
2020,04,16,00,34,7.90
2020,04,16,00,35,7.90
2020,04,16,00,36,7.90
2020,04,16,00,37,7.90
2020,04,16,00,38,7.90
2020,04,16,00,39,7.90
2020,04,16,00,40,7.90
2020,04,16,00,41,7.90
2020,04,16,00,42,7.90
2020,04,16,00,43,7.90
2020,04,16,00,44,7.90
2020,04,16,00,45,7.90
2020,04,16,00,46,7.90
2020,04,16,00,47,7.90
2020,04,16,00,48,7.90
2020,04,16,00,49,7.90
2020,04,16,00,50,7.90
2020,04,16,00,51,7.90
2020,04,16,00,52,7.90
2020,04,16,00,53,7.90
2020,04,16,00,54,7.90
2020,04,16,00,55,7.90
2020,04,16,00,56,7.90
2020,04,16,00,57,7.80
2020,04,16,00,58,7.90
2020,04,16,00,59,7.90
2020,04,16,01,00,7.90
2020,04,16,01,01,7.90
2020,04,16,01,02,7.90
2020,04,16,01,03,7.90
2020,04,16,01,04,7.90
2020,04,16,01,05,7.90
2020,04,16,01,06,7.90
2020,04,16,01,07,7.90
2020,04,16,01,08,7.90
2020,04,16,01,09,7.90
2020,04,16,01,10,7.90
2020,04,16,01,11,7.90
2020,04,16,01,12,7.90
2020,04,16,01,13,7.90
2020,04,16,01,14,7.80
2020,04,16,01,15,7.80
2020,04,16,01,16,7.80
2020,04,16,01,17,7.80
2020,04,16,01,18,7.80
2020,04,16,01,19,7.80
2020,04,16,01,20,7.80
2020,04,16,01,21,7.80
2020,04,16,01,22,7.80
2020,04,16,01,23,7.80
2020,04,16,01,24,7.80
2020,04,16,01,25,7.80
2020,04,16,01,26,7.80
2020,04,16,01,27,7.70
2020,04,16,01,28,7.70
2020,04,16,01,29,7.70
2020,04,16,01,30,7.70
2020,04,16,01,31,7.70
2020,04,16,01,32,7.70
2020,04,16,01,33,7.70
2020,04,16,01,34,7.70
2020,04,16,01,35,7.70
2020,04,16,01,36,7.70
2020,04,16,01,37,7.70
2020,04,16,01,38,7.70
2020,04,16,01,39,7.70
2020,04,16,01,40,7.70
2020,04,16,01,41,7.70
2020,04,16,01,42,7.70
2020,04,16,01,43,7.70
2020,04,16,01,44,7.70
2020,04,16,01,45,7.70
2020,04,16,01,46,7.70
2020,04,16,01,47,7.70
2020,04,16,01,48,7.70
2020,04,16,01,49,7.70
2020,04,16,01,50,7.70
2020,04,16,01,51,7.70
2020,04,16,01,52,7.70
2020,04,16,01,53,7.60
2020,04,16,01,54,7.60
2020,04,16,01,55,7.60
2020,04,16,01,56,7.60
2020,04,16,01,57,7.60
2020,04,16,01,58,7.50
2020,04,16,01,59,7.50
2020,04,16,02,00,7.50
2020,04,16,02,01,7.40
2020,04,16,02,02,7.40
2020,04,16,02,03,7.40
2020,04,16,02,04,7.40
2020,04,16,02,05,7.30
2020,04,16,02,06,7.30
2020,04,16,02,07,7.30
2020,04,16,02,08,7.30
2020,04,16,02,09,7.30
2020,04,16,02,10,7.30
2020,04,16,02,11,7.30
2020,04,16,02,12,7.20
2020,04,16,02,13,7.20
2020,04,16,02,14,7.20
2020,04,16,02,15,7.20
2020,04,16,02,16,7.20
2020,04,16,02,17,7.10
2020,04,16,02,18,7.10
2020,04,16,02,19,7.10
2020,04,16,02,20,7.00
2020,04,16,02,21,7.00
2020,04,16,02,22,7.00
2020,04,16,02,23,7.00
2020,04,16,02,24,7.00
2020,04,16,02,25,6.90
2020,04,16,02,26,6.90
2020,04,16,02,27,6.90
2020,04,16,02,28,6.90
2020,04,16,02,29,6.90
2020,04,16,02,30,6.90
2020,04,16,02,31,6.90
2020,04,16,02,32,6.90
2020,04,16,02,33,6.90
2020,04,16,02,34,6.90
2020,04,16,02,35,7.00
2020,04,16,02,36,7.00
2020,04,16,02,37,7.00
2020,04,16,02,38,6.90
2020,04,16,02,39,6.90
2020,04,16,02,40,6.80
2020,04,16,02,41,6.80
2020,04,16,02,42,6.80
2020,04,16,02,43,6.80
2020,04,16,02,44,6.80
2020,04,16,02,45,6.80
2020,04,16,02,46,6.80
2020,04,16,02,47,6.80
2020,04,16,02,48,6.80
2020,04,16,02,49,6.80
2020,04,16,02,50,6.80
2020,04,16,02,51,6.80
2020,04,16,02,52,6.80
2020,04,16,02,53,6.80
2020,04,16,02,54,6.70
2020,04,16,02,55,6.70
2020,04,16,02,56,6.70
2020,04,16,02,57,6.70
2020,04,16,02,58,6.70
2020,04,16,02,59,6.70
2020,04,16,03,00,6.70
2020,04,16,03,01,6.60
2020,04,16,03,02,6.60
2020,04,16,03,03,6.60
2020,04,16,03,04,6.60
2020,04,16,03,05,6.60
2020,04,16,03,06,6.60
2020,04,16,03,07,6.40
2020,04,16,03,08,6.40
2020,04,16,03,09,6.40
2020,04,16,03,10,6.40
2020,04,16,03,11,6.30
2020,04,16,03,12,6.30
2020,04,16,03,13,6.30
2020,04,16,03,14,6.30
2020,04,16,03,15,6.20
2020,04,16,03,16,6.20
2020,04,16,03,17,6.20
2020,04,16,03,18,6.20
2020,04,16,03,19,6.20
2020,04,16,03,20,6.20
2020,04,16,03,21,6.20
2020,04,16,03,22,6.20
2020,04,16,03,23,6.20
2020,04,16,03,24,6.20
2020,04,16,03,25,6.20
2020,04,16,03,26,6.20
2020,04,16,03,27,6.20
2020,04,16,03,28,6.20
2020,04,16,03,29,6.30
2020,04,16,03,30,6.30
2020,04,16,03,31,6.30
2020,04,16,03,32,6.30
2020,04,16,03,33,6.30
2020,04,16,03,34,6.30
2020,04,16,03,35,6.30
2020,04,16,03,36,6.30
2020,04,16,03,37,6.30
2020,04,16,03,38,6.20
2020,04,16,03,39,6.20
2020,04,16,03,40,6.20
2020,04,16,03,41,6.20
2020,04,16,03,42,6.20
2020,04,16,03,43,6.30
2020,04,16,03,44,6.30
2020,04,16,03,45,6.30
2020,04,16,03,46,6.30
2020,04,16,03,47,6.30
2020,04,16,03,48,6.20
2020,04,16,03,49,6.20
2020,04,16,03,50,6.20
2020,04,16,03,51,6.20
2020,04,16,03,52,6.20
2020,04,16,03,53,6.20
2020,04,16,03,54,6.20
2020,04,16,03,55,6.20
2020,04,16,03,56,6.20
2020,04,16,03,57,6.20
2020,04,16,03,58,6.20
2020,04,16,03,59,6.20
2020,04,16,04,00,6.20
2020,04,16,04,01,6.20
2020,04,16,04,02,6.20
2020,04,16,04,03,6.10
2020,04,16,04,04,6.10
2020,04,16,04,05,6.10
2020,04,16,04,06,6.00
2020,04,16,04,07,6.00
2020,04,16,04,08,6.00
2020,04,16,04,09,5.90
2020,04,16,04,10,5.90
2020,04,16,04,11,5.80
2020,04,16,04,12,5.80
2020,04,16,04,13,5.70
2020,04,16,04,14,5.70
2020,04,16,04,15,5.70
2020,04,16,04,16,5.70
2020,04,16,04,17,5.70
2020,04,16,04,18,5.70
2020,04,16,04,19,5.70
2020,04,16,04,20,5.70
2020,04,16,04,21,5.70
2020,04,16,04,22,5.70
2020,04,16,04,23,5.70
2020,04,16,04,24,5.70
2020,04,16,04,25,5.70
2020,04,16,04,26,5.70
2020,04,16,04,27,5.70
2020,04,16,04,28,5.70
2020,04,16,04,29,5.70
2020,04,16,04,30,5.70
2020,04,16,04,31,5.70
2020,04,16,04,32,5.70
2020,04,16,04,33,5.70
2020,04,16,04,34,5.70
2020,04,16,04,35,5.70
2020,04,16,04,36,5.70
2020,04,16,04,37,5.60
2020,04,16,04,38,5.60
2020,04,16,04,39,5.60
2020,04,16,04,40,5.60
2020,04,16,04,41,5.60
2020,04,16,04,42,5.60
2020,04,16,04,43,5.60
2020,04,16,04,44,5.60
2020,04,16,04,45,5.60
2020,04,16,04,46,5.60
2020,04,16,04,47,5.60
2020,04,16,04,48,5.60
2020,04,16,04,49,5.60
2020,04,16,04,50,5.60
2020,04,16,04,51,5.60
2020,04,16,04,52,5.60
2020,04,16,04,53,5.60
2020,04,16,04,54,5.60
2020,04,16,04,55,5.60
2020,04,16,04,56,5.60
2020,04,16,04,57,5.60
2020,04,16,04,58,5.60
2020,04,16,04,59,5.50
2020,04,16,05,00,5.50
2020,04,16,05,01,5.50
2020,04,16,05,02,5.50
2020,04,16,05,03,5.50
2020,04,16,05,04,5.50
2020,04,16,05,05,5.50
2020,04,16,05,06,5.50
2020,04,16,05,07,5.50
2020,04,16,05,08,5.50
2020,04,16,05,09,5.50
2020,04,16,05,10,5.50
2020,04,16,05,11,5.50
2020,04,16,05,12,5.50
2020,04,16,05,13,5.50
2020,04,16,05,14,5.40
2020,04,16,05,15,5.40
2020,04,16,05,16,5.40
2020,04,16,05,17,5.40
2020,04,16,05,18,5.40
2020,04,16,05,19,5.30
2020,04,16,05,20,5.30
2020,04,16,05,21,5.30
2020,04,16,05,22,5.30
2020,04,16,05,23,5.30
2020,04,16,05,24,5.30
2020,04,16,05,25,5.30
2020,04,16,05,26,5.30
2020,04,16,05,27,5.30
2020,04,16,05,28,5.20
2020,04,16,05,29,5.20
2020,04,16,05,30,5.20
2020,04,16,05,31,5.20
2020,04,16,05,32,5.20
2020,04,16,05,33,5.10
2020,04,16,05,34,5.10
2020,04,16,05,35,5.10
2020,04,16,05,36,5.10
2020,04,16,05,37,5.10
2020,04,16,05,38,5.10
2020,04,16,05,39,5.10
2020,04,16,05,40,5.10
2020,04,16,05,41,5.10
2020,04,16,05,42,5.00
2020,04,16,05,43,4.90
2020,04,16,05,44,4.90
2020,04,16,05,45,5.00
2020,04,16,05,46,5.10
2020,04,16,05,47,5.10
2020,04,16,05,48,5.10
2020,04,16,05,49,5.10
2020,04,16,05,50,5.10
2020,04,16,05,51,5.20
2020,04,16,05,52,5.20
2020,04,16,05,53,5.20
2020,04,16,05,54,5.30
2020,04,16,05,55,5.30
2020,04,16,05,56,5.30
2020,04,16,05,57,5.30
2020,04,16,05,58,5.30
2020,04,16,05,59,5.30
2020,04,16,06,00,5.30
2020,04,16,06,01,5.30
2020,04,16,06,02,5.40
2020,04,16,06,03,5.40
2020,04,16,06,04,5.40
2020,04,16,06,05,5.50
2020,04,16,06,06,5.50
2020,04,16,06,07,5.50
2020,04,16,06,08,5.50
2020,04,16,06,09,5.50
2020,04,16,06,10,5.50
2020,04,16,06,11,5.50
2020,04,16,06,12,5.50
2020,04,16,06,13,5.50
2020,04,16,06,14,5.50
2020,04,16,06,15,5.50
2020,04,16,06,16,5.50
2020,04,16,06,17,5.50
2020,04,16,06,18,5.50
2020,04,16,06,19,5.50
2020,04,16,06,20,5.50
2020,04,16,06,21,5.50
2020,04,16,06,22,5.50
2020,04,16,06,23,5.50
2020,04,16,06,24,5.50
2020,04,16,06,25,5.50
2020,04,16,06,26,5.50
2020,04,16,06,27,5.50
2020,04,16,06,28,5.50
2020,04,16,06,29,5.50
2020,04,16,06,30,5.50
2020,04,16,06,31,5.60
2020,04,16,06,32,5.60
2020,04,16,06,33,5.60
2020,04,16,06,34,5.70
2020,04,16,06,35,5.70
2020,04,16,06,36,5.70
2020,04,16,06,37,5.70
2020,04,16,06,38,5.70
2020,04,16,06,39,5.70
2020,04,16,06,40,5.70
2020,04,16,06,41,5.70
2020,04,16,06,42,5.70
2020,04,16,06,43,5.70
2020,04,16,06,44,5.70
2020,04,16,06,45,5.70
2020,04,16,06,46,5.70
2020,04,16,06,47,5.70
2020,04,16,06,48,5.70
2020,04,16,06,49,5.70
2020,04,16,06,50,5.70
2020,04,16,06,51,5.70
2020,04,16,06,52,5.70
2020,04,16,06,53,5.70
2020,04,16,06,54,5.70
2020,04,16,06,55,5.70
2020,04,16,06,56,5.70
2020,04,16,06,57,5.80
2020,04,16,06,58,5.80
2020,04,16,06,59,5.80
2020,04,16,07,00,5.90
2020,04,16,07,01,5.90
2020,04,16,07,02,5.90
2020,04,16,07,03,5.90
2020,04,16,07,04,5.90
2020,04,16,07,05,5.90
2020,04,16,07,06,5.90
2020,04,16,07,07,5.90
2020,04,16,07,08,5.90
2020,04,16,07,09,6.00
2020,04,16,07,10,6.00
2020,04,16,07,11,6.00
2020,04,16,07,12,6.00
2020,04,16,07,13,6.00
2020,04,16,07,14,6.10
2020,04,16,07,15,6.10
2020,04,16,07,16,6.20
2020,04,16,07,17,6.20
2020,04,16,07,18,6.20
2020,04,16,07,19,6.20
2020,04,16,07,20,6.30
2020,04,16,07,21,6.40
2020,04,16,07,22,6.40
2020,04,16,07,23,6.50
2020,04,16,07,24,6.60
2020,04,16,07,25,6.60
2020,04,16,07,26,6.60
2020,04,16,07,27,6.70
2020,04,16,07,28,6.80
2020,04,16,07,29,6.80
2020,04,16,07,30,6.80
2020,04,16,07,31,6.90
2020,04,16,07,32,6.90
2020,04,16,07,33,7.00
2020,04,16,07,34,7.00
2020,04,16,07,35,7.00
2020,04,16,07,36,7.10
2020,04,16,07,37,7.10
2020,04,16,07,38,7.20
2020,04,16,07,39,7.20
2020,04,16,07,40,7.20
2020,04,16,07,41,7.30
2020,04,16,07,42,7.30
2020,04,16,07,43,7.30
2020,04,16,07,44,7.30
2020,04,16,07,45,7.40
2020,04,16,07,46,7.50
2020,04,16,07,47,7.50
2020,04,16,07,48,7.60
2020,04,16,07,49,7.70
2020,04,16,07,50,7.80
2020,04,16,07,51,7.90
2020,04,16,07,52,8.00
2020,04,16,07,53,8.20
2020,04,16,07,54,8.30
2020,04,16,07,55,8.40
2020,04,16,07,56,8.50
2020,04,16,07,57,8.50
2020,04,16,07,58,8.60
2020,04,16,07,59,8.70
2020,04,16,08,00,8.70
2020,04,16,08,01,8.70
2020,04,16,08,02,8.80
2020,04,16,08,03,8.90
2020,04,16,08,04,9.00
2020,04,16,08,05,9.00
2020,04,16,08,06,9.10
2020,04,16,08,07,9.20
2020,04,16,08,08,9.20
2020,04,16,08,09,9.30
2020,04,16,08,10,9.40
2020,04,16,08,11,9.60
2020,04,16,08,12,9.80
2020,04,16,08,13,9.90
2020,04,16,08,14,10.10
2020,04,16,08,15,10.20
2020,04,16,08,16,10.40
2020,04,16,08,17,10.60
2020,04,16,08,18,10.80
2020,04,16,08,19,10.90
2020,04,16,08,20,11.10
2020,04,16,08,21,11.10
2020,04,16,08,22,11.20
2020,04,16,08,23,11.20
2020,04,16,08,24,11.30
2020,04,16,08,25,11.40
2020,04,16,08,26,11.40
2020,04,16,08,27,11.40
2020,04,16,08,28,11.40
2020,04,16,08,29,11.40
2020,04,16,08,30,11.40
2020,04,16,08,31,11.50
2020,04,16,08,32,11.60
2020,04,16,08,33,11.60
2020,04,16,08,34,11.60
2020,04,16,08,35,11.70
2020,04,16,08,36,11.70
2020,04,16,08,37,11.80
2020,04,16,08,38,11.80
2020,04,16,08,39,11.90
2020,04,16,08,40,12.10
2020,04,16,08,41,12.20
2020,04,16,08,42,12.40
2020,04,16,08,43,12.50
2020,04,16,08,44,12.70
2020,04,16,08,45,12.80
2020,04,16,08,46,12.90
2020,04,16,08,47,13.00
2020,04,16,08,48,13.10
2020,04,16,08,49,13.10
2020,04,16,08,50,13.20
2020,04,16,08,51,13.30
2020,04,16,08,52,13.30
2020,04,16,08,53,13.30
2020,04,16,08,54,13.30
2020,04,16,08,55,13.30
2020,04,16,08,56,13.30
2020,04,16,08,57,13.30
2020,04,16,08,58,13.30
2020,04,16,08,59,13.40
2020,04,16,09,00,13.50
2020,04,16,09,01,13.50
2020,04,16,09,02,13.60
2020,04,16,09,03,13.70
2020,04,16,09,04,13.70
2020,04,16,09,05,13.80
2020,04,16,09,06,13.80
2020,04,16,09,07,13.90
2020,04,16,09,08,13.90
2020,04,16,09,09,14.00
2020,04,16,09,10,14.10
2020,04,16,09,11,14.20
2020,04,16,09,12,14.20
2020,04,16,09,13,14.30
2020,04,16,09,14,14.40
2020,04,16,09,15,14.40
2020,04,16,09,16,14.50
2020,04,16,09,17,14.50
2020,04,16,09,18,14.50
2020,04,16,09,19,14.50
2020,04,16,09,20,14.50
2020,04,16,09,21,14.50
2020,04,16,09,22,14.50
2020,04,16,09,23,14.50
2020,04,16,09,24,14.50
2020,04,16,09,25,14.60
2020,04,16,09,26,14.60
2020,04,16,09,27,14.50
2020,04,16,09,28,14.50
2020,04,16,09,29,14.50
2020,04,16,09,30,14.60
2020,04,16,09,31,14.60
2020,04,16,09,32,14.70
2020,04,16,09,33,14.70
2020,04,16,09,34,14.70
2020,04,16,09,35,14.70
2020,04,16,09,36,14.80
2020,04,16,09,37,14.80
2020,04,16,09,38,14.80
2020,04,16,09,39,14.90
2020,04,16,09,40,14.90
2020,04,16,09,41,15.00
2020,04,16,09,42,15.00
2020,04,16,09,43,15.10
2020,04,16,09,44,15.10
2020,04,16,09,45,15.20
2020,04,16,09,46,15.20
2020,04,16,09,47,15.30
2020,04,16,09,48,15.30
2020,04,16,09,49,15.30
2020,04,16,09,50,15.30
2020,04,16,09,51,15.30
2020,04,16,09,52,15.30
2020,04,16,09,53,15.30
2020,04,16,09,54,15.30
2020,04,16,09,55,15.30
2020,04,16,09,56,15.30
2020,04,16,09,57,15.30
2020,04,16,09,58,15.30
2020,04,16,09,59,15.30
2020,04,16,10,00,15.30
2020,04,16,10,01,15.40
2020,04,16,10,02,15.40
2020,04,16,10,03,15.50
2020,04,16,10,04,15.50
2020,04,16,10,05,15.60
2020,04,16,10,06,15.60
2020,04,16,10,07,15.60
2020,04,16,10,08,15.70
2020,04,16,10,09,15.80
2020,04,16,10,10,15.80
2020,04,16,10,11,15.80
2020,04,16,10,12,15.90
2020,04,16,10,13,15.80
2020,04,16,10,14,15.90
2020,04,16,10,15,15.90
2020,04,16,10,16,16.00
2020,04,16,10,17,16.10
2020,04,16,10,18,16.10
2020,04,16,10,19,16.10
2020,04,16,10,20,16.20
2020,04,16,10,21,16.30
2020,04,16,10,22,16.40
2020,04,16,10,23,16.40
2020,04,16,10,24,16.40
2020,04,16,10,25,16.50
2020,04,16,10,26,16.60
2020,04,16,10,27,16.70
2020,04,16,10,28,16.70
2020,04,16,10,29,16.70
2020,04,16,10,30,16.60
2020,04,16,10,31,16.50
2020,04,16,10,32,16.40
2020,04,16,10,33,16.40
2020,04,16,10,34,16.40
2020,04,16,10,35,16.40
2020,04,16,10,36,16.40
2020,04,16,10,37,16.40
2020,04,16,10,38,16.40
2020,04,16,10,39,16.40
2020,04,16,10,40,16.40
2020,04,16,10,41,16.40
2020,04,16,10,42,16.40
2020,04,16,10,43,16.50
2020,04,16,10,44,16.60
2020,04,16,10,45,16.80
2020,04,16,10,46,16.90
2020,04,16,10,47,17.00
2020,04,16,10,48,17.00
2020,04,16,10,49,17.10
2020,04,16,10,50,17.10
2020,04,16,10,51,17.20
2020,04,16,10,52,17.20
2020,04,16,10,53,17.30
2020,04,16,10,54,17.30
2020,04,16,10,55,17.30
2020,04,16,10,56,17.30
2020,04,16,10,57,17.30
2020,04,16,10,58,17.30
2020,04,16,10,59,17.30
2020,04,16,11,00,17.30
2020,04,16,11,01,17.30
2020,04,16,11,02,17.30
2020,04,16,11,03,17.30
2020,04,16,11,04,17.30
2020,04,16,11,05,17.30
2020,04,16,11,06,17.20
2020,04,16,11,07,17.00
2020,04,16,11,08,16.90
2020,04,16,11,09,16.90
2020,04,16,11,10,16.90
2020,04,16,11,11,16.90
2020,04,16,11,12,17.00
2020,04,16,11,13,17.00
2020,04,16,11,14,17.10
2020,04,16,11,15,17.30
2020,04,16,11,16,17.30
2020,04,16,11,17,17.30
2020,04,16,11,18,17.30
2020,04,16,11,19,17.30
2020,04,16,11,20,17.30
2020,04,16,11,21,17.30
2020,04,16,11,22,17.30
2020,04,16,11,23,17.30
2020,04,16,11,24,17.30
2020,04,16,11,25,17.30
2020,04,16,11,26,17.30
2020,04,16,11,27,17.30
2020,04,16,11,28,17.30
2020,04,16,11,29,17.30
2020,04,16,11,30,17.30
2020,04,16,11,31,17.20
2020,04,16,11,32,17.10
2020,04,16,11,33,16.90
2020,04,16,11,34,16.90
2020,04,16,11,35,16.80
2020,04,16,11,36,16.80
2020,04,16,11,37,16.90
2020,04,16,11,38,16.80
2020,04,16,11,39,16.80
2020,04,16,11,40,16.80
2020,04,16,11,41,16.80
2020,04,16,11,42,16.80
2020,04,16,11,43,16.80
2020,04,16,11,44,16.90
2020,04,16,11,45,16.90
2020,04,16,11,46,16.80
2020,04,16,11,47,16.70
2020,04,16,11,48,16.60
2020,04,16,11,49,16.50
2020,04,16,11,50,16.40
2020,04,16,11,51,16.30
2020,04,16,11,52,16.30
2020,04,16,11,53,16.30
2020,04,16,11,54,16.30
2020,04,16,11,55,16.30
2020,04,16,11,56,16.40
2020,04,16,11,57,16.40
2020,04,16,11,58,16.40
2020,04,16,11,59,16.40
2020,04,16,12,00,16.40
2020,04,16,12,01,16.40
2020,04,16,12,02,16.40
2020,04,16,12,03,16.40
2020,04,16,12,04,16.40
2020,04,16,12,05,16.40
2020,04,16,12,06,16.50
2020,04,16,12,07,16.60
2020,04,16,12,08,16.70
2020,04,16,12,09,16.70
2020,04,16,12,10,16.60
2020,04,16,12,11,16.50
2020,04,16,12,12,16.40
2020,04,16,12,13,16.40
2020,04,16,12,14,16.40
2020,04,16,12,15,16.30
2020,04,16,12,16,16.30
2020,04,16,12,17,16.20
2020,04,16,12,18,16.20
2020,04,16,12,19,16.30
2020,04,16,12,20,16.20
2020,04,16,12,21,16.20
2020,04,16,12,22,16.30
2020,04,16,12,23,16.30
2020,04,16,12,24,16.20
2020,04,16,12,25,16.10
2020,04,16,12,26,16.10
2020,04,16,12,27,16.10
2020,04,16,12,28,16.00
2020,04,16,12,29,15.90
2020,04,16,12,30,15.80
2020,04,16,12,31,15.80
2020,04,16,12,32,15.90
2020,04,16,12,33,16.00
2020,04,16,12,34,16.10
2020,04,16,12,35,16.10
2020,04,16,12,36,16.20
2020,04,16,12,37,16.30
2020,04,16,12,38,16.40
2020,04,16,12,39,16.40
2020,04,16,12,40,16.40
2020,04,16,12,41,16.40
2020,04,16,12,42,16.40
2020,04,16,12,43,16.40
2020,04,16,12,44,16.30
2020,04,16,12,45,16.20
2020,04,16,12,46,16.10
2020,04,16,12,47,16.00
2020,04,16,12,48,15.90
2020,04,16,12,49,15.90
2020,04,16,12,50,15.80
2020,04,16,12,51,15.80
2020,04,16,12,52,15.80
2020,04,16,12,53,15.80
2020,04,16,12,54,15.80
2020,04,16,12,55,15.80
2020,04,16,12,56,15.80
2020,04,16,12,57,15.80
2020,04,16,12,58,15.80
2020,04,16,12,59,15.80
2020,04,16,13,00,15.70
2020,04,16,13,01,15.70
2020,04,16,13,02,15.70
2020,04,16,13,03,15.80
2020,04,16,13,04,15.80
2020,04,16,13,05,15.90
2020,04,16,13,06,15.90
2020,04,16,13,07,16.00
2020,04,16,13,08,16.10
2020,04,16,13,09,16.00
2020,04,16,13,10,15.80
2020,04,16,13,11,15.90
2020,04,16,13,12,15.90
2020,04,16,13,13,15.90
2020,04,16,13,14,16.00
2020,04,16,13,15,16.10
2020,04,16,13,16,15.90
2020,04,16,13,17,15.90
2020,04,16,13,18,15.80
2020,04,16,13,19,15.80
2020,04,16,13,20,15.80
2020,04,16,13,21,15.80
2020,04,16,13,22,15.80
2020,04,16,13,23,15.90
2020,04,16,13,24,15.90
2020,04,16,13,25,15.90
2020,04,16,13,26,15.80
2020,04,16,13,27,15.80
2020,04,16,13,28,15.80
2020,04,16,13,29,15.80
2020,04,16,13,30,15.80
2020,04,16,13,31,15.80
2020,04,16,13,32,15.80
2020,04,16,13,33,15.80
2020,04,16,13,34,15.80
2020,04,16,13,35,15.80
2020,04,16,13,36,15.70
2020,04,16,13,37,15.70
2020,04,16,13,38,15.80
2020,04,16,13,39,15.80
2020,04,16,13,40,15.80
2020,04,16,13,41,15.80
2020,04,16,13,42,15.90
2020,04,16,13,43,15.90
2020,04,16,13,44,15.90
2020,04,16,13,45,15.90
2020,04,16,13,46,15.90
2020,04,16,13,47,15.90
2020,04,16,13,48,15.90
2020,04,16,13,49,15.80
2020,04,16,13,50,15.90
2020,04,16,13,51,16.00
2020,04,16,13,52,16.10
2020,04,16,13,53,16.20
2020,04,16,13,54,16.20
2020,04,16,13,55,16.20
2020,04,16,13,56,16.20
2020,04,16,13,57,16.30
2020,04,16,13,58,16.30
2020,04,16,13,59,16.40
2020,04,16,14,00,16.40
2020,04,16,14,01,16.50
2020,04,16,14,02,16.60
2020,04,16,14,03,16.50
2020,04,16,14,04,16.40
2020,04,16,14,05,16.40
2020,04,16,14,06,16.40
2020,04,16,14,07,16.30
2020,04,16,14,08,16.30
2020,04,16,14,09,16.40
2020,04,16,14,10,16.50
2020,04,16,14,11,16.60
2020,04,16,14,12,16.70
2020,04,16,14,13,16.70
2020,04,16,14,14,16.70
2020,04,16,14,15,16.60
2020,04,16,14,16,16.60
2020,04,16,14,17,16.50
2020,04,16,14,18,16.50
2020,04,16,14,19,16.60
2020,04,16,14,20,16.60
2020,04,16,14,21,16.60
2020,04,16,14,22,16.60
2020,04,16,14,23,16.70
2020,04,16,14,24,16.70
2020,04,16,14,25,16.70
2020,04,16,14,26,16.70
2020,04,16,14,27,16.70
2020,04,16,14,28,16.70
2020,04,16,14,29,16.70
2020,04,16,14,30,16.70
2020,04,16,14,31,16.70
2020,04,16,14,32,16.70
2020,04,16,14,33,16.70
2020,04,16,14,34,16.80
2020,04,16,14,35,16.70
2020,04,16,14,36,16.60
2020,04,16,14,37,16.60
2020,04,16,14,38,16.60
2020,04,16,14,39,16.60
2020,04,16,14,40,16.50
2020,04,16,14,41,16.40
2020,04,16,14,42,16.40
2020,04,16,14,43,16.40
2020,04,16,14,44,16.40
2020,04,16,14,45,16.40
2020,04,16,14,46,16.40
2020,04,16,14,47,16.40
2020,04,16,14,48,16.40
2020,04,16,14,49,16.40
2020,04,16,14,50,16.30
2020,04,16,14,51,16.40
2020,04,16,14,52,16.40
2020,04,16,14,53,16.50
2020,04,16,14,54,16.60
2020,04,16,14,55,16.70
2020,04,16,14,56,16.80
2020,04,16,14,57,16.90
2020,04,16,14,58,17.00
2020,04,16,14,59,17.10
2020,04,16,15,00,17.20
2020,04,16,15,01,17.30
2020,04,16,15,02,17.30
2020,04,16,15,03,17.30
2020,04,16,15,04,17.40
2020,04,16,15,05,17.50
2020,04,16,15,06,17.60
2020,04,16,15,07,17.60
2020,04,16,15,08,17.70
2020,04,16,15,09,17.80
2020,04,16,15,10,17.90
2020,04,16,15,11,17.90
2020,04,16,15,12,17.80
2020,04,16,15,13,17.80
2020,04,16,15,14,17.80
2020,04,16,15,15,17.70
2020,04,16,15,16,17.60
2020,04,16,15,17,17.60
2020,04,16,15,18,17.70
2020,04,16,15,19,17.80
2020,04,16,15,20,17.70
2020,04,16,15,21,17.70
2020,04,16,15,22,17.60
2020,04,16,15,23,17.70
2020,04,16,15,24,17.70
2020,04,16,15,25,17.70
2020,04,16,15,26,17.70
2020,04,16,15,27,17.60
2020,04,16,15,28,17.60
2020,04,16,15,29,17.50
2020,04,16,15,30,17.50
2020,04,16,15,31,17.50
2020,04,16,15,32,17.50
2020,04,16,15,33,17.50
2020,04,16,15,34,17.50
2020,04,16,15,35,17.60
2020,04,16,15,36,17.60
2020,04,16,15,37,17.60
2020,04,16,15,38,17.60
2020,04,16,15,39,17.60
2020,04,16,15,40,17.70
2020,04,16,15,41,17.70
2020,04,16,15,42,17.60
2020,04,16,15,43,17.60
2020,04,16,15,44,17.70
2020,04,16,15,45,17.70
2020,04,16,15,46,17.80
2020,04,16,15,47,17.80
2020,04,16,15,48,17.80
2020,04,16,15,49,17.80
2020,04,16,15,50,17.80
2020,04,16,15,51,17.80
2020,04,16,15,52,17.80
2020,04,16,15,53,17.90
2020,04,16,15,54,17.90
2020,04,16,15,55,17.90
2020,04,16,15,56,17.90
2020,04,16,15,57,17.90
2020,04,16,15,58,17.90
2020,04,16,15,59,17.90
2020,04,16,16,00,18.10
2020,04,16,16,01,18.10
2020,04,16,16,02,18.10
2020,04,16,16,03,18.20
2020,04,16,16,04,18.20
2020,04,16,16,05,18.20
2020,04,16,16,06,18.20
2020,04,16,16,07,18.20
2020,04,16,16,08,18.20
2020,04,16,16,09,18.10
2020,04,16,16,10,18.10
2020,04,16,16,11,18.00
2020,04,16,16,12,17.90
2020,04,16,16,13,17.80
2020,04,16,16,14,17.80
2020,04,16,16,15,17.80
2020,04,16,16,16,17.70
2020,04,16,16,17,17.70
2020,04,16,16,18,17.50
2020,04,16,16,19,17.50
2020,04,16,16,20,17.40
2020,04,16,16,21,17.40
2020,04,16,16,22,17.30
2020,04,16,16,23,17.30
2020,04,16,16,24,17.30
2020,04,16,16,25,17.30
2020,04,16,16,26,17.30
2020,04,16,16,27,17.30
2020,04,16,16,28,17.30
2020,04,16,16,29,17.30
2020,04,16,16,30,17.30
2020,04,16,16,31,17.30
2020,04,16,16,32,17.30
2020,04,16,16,33,17.30
2020,04,16,16,34,17.20
2020,04,16,16,35,17.10
2020,04,16,16,36,17.00
2020,04,16,16,37,16.90
2020,04,16,16,38,16.90
2020,04,16,16,39,16.90
2020,04,16,16,40,16.80
2020,04,16,16,41,16.80
2020,04,16,16,42,16.90
2020,04,16,16,43,16.90
2020,04,16,16,44,16.90
2020,04,16,16,45,17.00
2020,04,16,16,46,17.00
2020,04,16,16,47,17.10
2020,04,16,16,48,17.10
2020,04,16,16,49,17.20
2020,04,16,16,50,17.30
2020,04,16,16,51,17.30
2020,04,16,16,52,17.30
2020,04,16,16,53,17.30
2020,04,16,16,54,17.30
2020,04,16,16,55,17.30
2020,04,16,16,56,17.30
2020,04,16,16,57,17.30
2020,04,16,16,58,17.30
2020,04,16,16,59,17.30
2020,04,16,17,00,17.30
2020,04,16,17,01,17.30
2020,04,16,17,02,17.30
2020,04,16,17,03,17.30
2020,04,16,17,04,17.30
2020,04,16,17,05,17.30
2020,04,16,17,06,17.30
2020,04,16,17,07,17.40
2020,04,16,17,08,17.40
2020,04,16,17,09,17.40
2020,04,16,17,10,17.40
2020,04,16,17,11,17.50
2020,04,16,17,12,17.50
2020,04,16,17,13,17.50
2020,04,16,17,14,17.50
2020,04,16,17,15,17.50
2020,04,16,17,16,17.60
2020,04,16,17,17,17.60
2020,04,16,17,18,17.60
2020,04,16,17,19,17.50
2020,04,16,17,20,17.50
2020,04,16,17,21,17.40
2020,04,16,17,22,17.40
2020,04,16,17,23,17.40
2020,04,16,17,24,17.30
2020,04,16,17,25,17.30
2020,04,16,17,26,17.30
2020,04,16,17,27,17.30
2020,04,16,17,28,17.20
2020,04,16,17,29,17.20
2020,04,16,17,30,17.10
2020,04,16,17,31,17.10
2020,04,16,17,32,17.00
2020,04,16,17,33,16.90
2020,04,16,17,34,16.90
2020,04,16,17,35,16.90
2020,04,16,17,36,16.90
2020,04,16,17,37,17.00
2020,04,16,17,38,17.00
2020,04,16,17,39,16.90
2020,04,16,17,40,16.90